Date String (YYYY-MM-DD hh:mm:ss) UTC,Instrument flags,Ambient pressure (hPa),Sample flow (lpm),Bypass flow (lpm),Sample temperature (°C),Ambient temperature (°C),ASC tube jacket temperature (°C),LED temperature (°C),Box temperature (°C),Sample RH (%),Span deviation,Mass concentration (μg/m³),Mass concentration (μg/m³),Mass concentration (μg/m³)
DateTimeUTC,F1_M11,P_M11,Q1_M11,Q2_M11,T1_M11,T2_M11,T3_M11,T4_M11,T5_M11,U1_M11,ZSPAN_M11,X0_M11,X2_M11,X1_M11
2021-10-07 11:00:00,,0827.4,5.00,0.00,29.8,28.8,00.0,39.0,31.6,17.2,0000.0,0005.52,0002.42,0001.72
2021-10-07 11:01:00,,0827.4,5.01,0.00,29.8,28.8,00.0,39.0,31.6,17.2,0000.0,0005.48,0002.44,0001.71
2021-10-07 11:02:00,,0827.4,4.99,0.00,29.8,28.9,00.0,39.0,31.6,17.2,0000.0,0005.39,0002.42,0001.71
2021-10-07 11:03:00,,0827.4,5.00,0.00,29.9,28.9,00.0,39.0,31.6,17.2,0000.0,0005.23,0002.42,0001.70
2021-10-07 11:04:00,,0827.4,4.99,0.00,29.9,28.9,00.0,39.0,31.6,17.2,0000.0,0005.15,0002.39,0001.70
2021-10-07 11:05:00,,0827.4,5.00,0.00,29.9,28.9,00.0,39.0,31.7,17.2,0000.0,0005.27,0002.36,0001.69
2021-10-07 11:06:00,,0827.4,4.99,0.00,29.9,29.0,00.0,39.0,31.7,17.3,0000.0,0006.10,0002.34,0001.68
2021-10-07 11:07:00,,0827.4,5.01,0.00,29.9,29.0,00.0,39.0,31.7,17.3,0000.0,0005.82,0002.31,0001.68
2021-10-07 11:08:00,,0827.4,5.00,0.00,29.9,29.0,00.0,39.0,31.8,17.3,0000.0,0005.13,0002.28,0001.68
2021-10-07 11:09:00,,0827.4,5.00,0.00,29.9,29.0,00.0,39.0,31.8,17.3,0000.0,0005.70,0002.26,0001.69
2021-10-07 11:10:00,,0827.5,5.01,0.00,29.9,29.0,00.0,39.0,31.7,17.2,0000.0,0006.88,0002.26,0001.69
2021-10-07 11:11:00,,0827.4,4.99,0.00,30.0,29.0,00.0,39.0,31.8,17.2,0000.0,0007.44,0002.31,0001.69
2021-10-07 11:12:00,,0827.4,5.00,0.00,30.0,29.1,00.0,39.0,31.7,17.2,0000.0,0007.57,0002.30,0001.70
2021-10-07 11:13:00,,0827.4,4.99,0.00,30.0,29.1,00.0,39.0,31.8,17.2,0000.0,0007.43,0002.21,0001.69
2021-10-07 11:14:00,,0827.4,5.01,0.00,30.0,29.1,00.0,39.0,31.7,17.2,0000.0,0007.44,0002.17,0001.69
2021-10-07 11:15:00,,0827.5,5.01,0.00,30.0,29.1,00.0,39.1,31.7,17.2,0000.0,0007.69,0002.16,0001.68
2021-10-07 11:16:00,,0827.4,5.00,0.00,30.0,29.1,00.0,39.1,31.7,17.2,0000.0,0008.08,0002.14,0001.68
2021-10-07 11:17:00,,0827.4,5.00,0.00,30.0,29.1,00.0,39.1,31.8,17.2,0000.0,0007.88,0002.12,0001.67
2021-10-07 11:18:00,,0827.4,5.00,0.00,30.0,29.1,00.0,39.1,31.7,17.2,0000.0,0007.75,0002.09,0001.66
2021-10-07 11:19:00,,0827.5,5.00,0.00,30.0,29.1,00.0,39.1,31.8,17.2,0000.0,0007.97,0002.13,0001.65
2021-10-07 11:20:00,,0827.4,5.01,0.00,30.0,29.1,00.0,39.1,31.7,17.0,0000.0,0007.87,0002.15,0001.65
2021-10-07 11:21:00,,0827.5,4.99,0.00,30.0,29.1,00.0,39.1,31.8,17.0,0000.0,0006.71,0002.13,0001.65
2021-10-07 11:22:00,,0827.5,5.02,0.00,30.0,29.1,00.0,39.1,31.8,17.0,0000.0,0006.52,0002.10,0001.66
2021-10-07 11:23:00,,0827.5,4.99,0.00,30.0,29.1,00.0,39.1,31.7,17.0,0000.0,0007.01,0002.14,0001.67
2021-10-07 11:24:00,,0827.5,5.00,0.00,30.0,29.2,00.0,39.1,31.7,17.1,0000.0,0007.14,0002.19,0001.68
2021-10-07 11:25:00,,0827.5,5.01,0.00,30.0,29.2,00.0,39.1,31.8,17.0,0000.0,0007.14,0002.21,0001.69
2021-10-07 11:26:00,,0827.5,5.00,0.00,30.0,29.2,00.0,39.1,31.8,17.0,0000.0,0006.62,0002.24,0001.72
2021-10-07 11:27:00,,0827.5,4.99,0.00,30.0,29.2,00.0,39.1,31.8,17.0,0000.0,0005.66,0002.26,0001.75
2021-10-07 11:28:00,,0827.6,5.01,0.00,30.1,29.2,00.0,39.1,31.9,17.0,0000.0,0005.29,0002.30,0001.77
2021-10-07 11:29:00,,0827.5,5.00,0.00,30.1,29.2,00.0,39.2,31.9,16.9,0000.0,0005.48,0002.34,0001.78
2021-10-07 11:30:00,,0827.5,5.00,0.00,30.1,29.2,00.0,39.2,31.9,16.9,0000.0,0005.11,0002.31,0001.78
2021-10-07 11:31:00,,0827.5,5.00,0.00,30.1,29.2,00.0,39.2,31.8,16.9,0000.0,0004.75,0002.34,0001.79
2021-10-07 11:32:00,,0827.5,5.01,0.00,30.1,29.2,00.0,39.2,31.8,16.9,0000.0,0004.69,0002.33,0001.78
2021-10-07 11:33:00,,0827.6,5.01,0.00,30.1,29.2,00.0,39.2,31.8,16.9,0000.0,0004.46,0002.38,0001.78
2021-10-07 11:34:00,,0827.5,4.99,0.00,30.1,29.2,00.0,39.2,31.9,17.0,0000.0,0003.78,0002.41,0001.80
2021-10-07 11:35:00,,0827.5,5.00,0.00,30.0,29.2,00.0,39.2,31.8,16.9,0000.0,0003.91,0002.47,0001.82
2021-10-07 11:36:00,,0827.5,5.00,0.00,30.0,29.1,00.0,39.2,31.8,16.6,0000.0,0004.02,0002.51,0001.83
2021-10-07 11:37:00,,0827.5,4.99,0.00,30.0,29.1,00.0,39.2,31.7,16.7,0000.0,0004.26,0002.53,0001.83
2021-10-07 11:38:00,,0827.5,5.00,0.00,30.0,29.1,00.0,39.2,31.7,16.7,0000.0,0004.46,0002.55,0001.81
2021-10-07 11:39:00,,0827.4,5.01,0.00,30.0,29.1,00.0,39.2,31.8,16.7,0000.0,0004.40,0002.52,0001.80
2021-10-07 11:40:00,,0827.4,4.99,0.00,30.0,29.1,00.0,39.2,31.8,16.5,0000.0,0004.41,0002.51,0001.81
2021-10-07 11:41:00,,0827.4,5.00,0.00,30.0,29.1,00.0,39.2,31.8,16.3,0000.0,0004.87,0002.55,0001.83
2021-10-07 11:42:00,,0827.4,5.00,0.00,30.0,29.1,00.0,39.1,31.7,15.1,0000.0,0004.80,0002.55,0001.86
2021-10-07 11:43:00,,0827.4,4.98,0.00,30.0,29.1,00.0,39.1,31.7,16.1,0000.0,0004.85,0002.56,0001.88
2021-10-07 11:44:00,,0827.4,5.00,0.00,30.0,29.1,00.0,39.1,31.7,16.1,0000.0,0004.98,0002.58,0001.89
2021-10-07 11:45:00,,0827.4,5.00,0.00,30.0,29.1,00.0,39.1,31.7,15.2,0000.0,0005.50,0002.54,0001.89
2021-10-07 11:46:00,,0827.3,5.00,0.00,30.0,29.1,00.0,39.1,31.7,13.8,0000.0,0005.49,0002.61,0001.99
2021-10-07 11:47:00,,0827.4,5.01,0.00,29.9,29.0,00.0,39.1,31.6,13.6,0000.0,0005.52,0002.73,0002.11
2021-10-07 11:48:00,,0827.4,5.01,0.00,29.9,29.0,00.0,39.1,31.7,14.0,0000.0,0005.41,0002.79,0002.21
2021-10-07 11:49:00,,0827.4,4.99,0.00,29.9,29.0,00.0,39.1,31.7,13.8,0000.0,0005.25,0002.84,0002.31
2021-10-07 11:50:00,,0827.4,4.99,0.00,29.9,29.0,00.0,39.1,31.6,13.9,0000.0,0005.39,0002.96,0002.43
2021-10-07 11:51:00,,0827.4,5.01,0.00,29.9,29.0,00.0,39.1,31.6,14.5,0000.0,0005.36,0003.04,0002.51
2021-10-07 11:52:00,,0827.4,5.01,0.00,29.9,29.0,00.0,39.1,31.6,13.8,0000.0,0004.77,0003.04,0002.58
2021-10-07 11:53:00,,0827.4,4.99,0.00,29.9,29.0,00.0,39.1,31.7,13.8,0000.0,0004.84,0003.08,0002.65
2021-10-07 11:54:00,,0827.4,5.01,0.00,29.9,29.1,00.0,39.1,31.7,14.0,0000.0,0005.84,0003.12,0002.73
2021-10-07 11:55:00,,0827.4,4.99,0.00,30.0,29.1,00.0,39.1,31.7,14.0,0000.0,0006.26,0003.14,0002.82
2021-10-07 11:56:00,,0827.4,5.01,0.00,30.0,29.1,00.0,39.1,31.7,14.7,0000.0,0005.73,0003.16,0002.87
2021-10-07 11:57:00,,0827.4,5.01,0.00,30.0,29.1,00.0,39.1,31.7,15.2,0000.0,0005.70,0003.14,0002.81
2021-10-07 11:58:00,,0827.4,5.01,0.00,30.0,29.2,00.0,39.1,31.7,15.3,0000.0,0005.59,0003.09,0002.73
2021-10-07 11:59:00,,0827.4,4.99,0.00,30.0,29.2,00.0,39.1,31.7,15.1,0000.0,0005.61,0003.08,0002.67
